Wetterdaten: Dienstag, 18.06.2013
Datum Zeit Temperatur Luftfeuchte Luftdruck Regen Wind Richtung Richtung Taupunkt Windchill Windben
18.06.2013 00:00 18,0 C 72 % 1019,6 hPa 0,0 l/m 0,2 km/h (0 Bft) O 90 12,9 C 18,2 C 0,0 km/h (0 Bft)
18.06.2013 00:05 18,2 C 74 % 1019,7 hPa 0,0 l/m 0,0 km/h (0 Bft) O 90 13,5 C 18,1 C 0,0 km/h (0 Bft)
18.06.2013 00:10 18,1 C 73 % 1019,7 hPa 0,0 l/m 0,0 km/h (0 Bft) O 90 13,2 C 18,0 C 0,0 km/h (0 Bft)
18.06.2013 00:15 17,9 C 75 % 1019,7 hPa 0,0 l/m 0,0 km/h (0 Bft) O 90 13,4 C 18,0 C 0,0 km/h (0 Bft)
18.06.2013 00:20 17,6 C 75 % 1019,7 hPa 0,0 l/m 0,0 km/h (0 Bft) O 90 13,1 C 17,7 C 0,0 km/h (0 Bft)
18.06.2013 00:25 17,4 C 75 % 1019,8 hPa 0,0 l/m 0,0 km/h (0 Bft) O 90 12,9 C 17,6 C 1,6 km/h (1 Bft)
18.06.2013 00:30 17,1 C 75 % 1019,8 hPa 0,0 l/m 0,0 km/h (0 Bft) SO 135 12,6 C 17,3 C 0,0 km/h (0 Bft)
18.06.2013 00:35 17,0 C 76 % 1019,8 hPa 0,0 l/m 0,0 km/h (0 Bft) NO 45 12,7 C 17,1 C 0,0 km/h (0 Bft)
18.06.2013 00:40 17,0 C 76 % 1019,8 hPa 0,0 l/m 0,0 km/h (0 Bft) NO 45 12,7 C 17,0 C 0,0 km/h (0 Bft)
18.06.2013 00:45 17,1 C 76 % 1019,7 hPa 0,0 l/m 0,0 km/h (0 Bft) NO 45 12,8 C 16,9 C 0,0 km/h (0 Bft)
18.06.2013 00:50 17,2 C 76 % 1019,7 hPa 0,0 l/m 0,0 km/h (0 Bft) NO 45 12,9 C 17,1 C 0,0 km/h (0 Bft)
18.06.2013 00:55 17,3 C 76 % 1019,7 hPa 0,0 l/m 0,2 km/h (0 Bft) SW 225 13,0 C 17,2 C 0,0 km/h (0 Bft)
18.06.2013 01:00 17,3 C 75 % 1019,7 hPa 0,0 l/m 0,0 km/h (0 Bft) O 90 12,8 C 17,3 C 2,4 km/h (1 Bft)
18.06.2013 01:05 17,5 C 75 % 1019,6 hPa 0,0 l/m 0,0 km/h (0 Bft) O 90 13,0 C 17,4 C 0,0 km/h (0 Bft)
18.06.2013 01:10 17,6 C 75 % 1019,6 hPa 0,0 l/m 0,0 km/h (0 Bft) W-NW 292 13,1 C 17,6 C 0,0 km/h (0 Bft)
18.06.2013 01:15 17,6 C 74 % 1019,6 hPa 0,0 l/m 0,2 km/h (0 Bft) S 180 12,9 C 17,8 C 0,0 km/h (0 Bft)
18.06.2013 01:20 17,6 C 74 % 1019,6 hPa 0,0 l/m 0,2 km/h (0 Bft) W-SW 247 12,9 C 18,0 C 1,6 km/h (1 Bft)
18.06.2013 01:25 17,7 C 74 % 1019,6 hPa 0,0 l/m 0,2 km/h (0 Bft) O-SO 112 13,0 C 18,0 C 2,3 km/h (1 Bft)
18.06.2013 01:30 17,7 C 73 % 1019,6 hPa 0,0 l/m 0,3 km/h (0 Bft) W-SW 247 12,8 C 18,1 C 2,6 km/h (1 Bft)
18.06.2013 01:35 17,7 C 73 % 1019,6 hPa 0,0 l/m 0,3 km/h (0 Bft) W-SW 247 12,8 C 18,2 C 1,6 km/h (1 Bft)
18.06.2013 01:40 17,7 C 73 % 1019,6 hPa 0,0 l/m 0,2 km/h (0 Bft) S-SO 157 12,8 C 18,4 C 0,0 km/h (0 Bft)
18.06.2013 01:45 17,8 C 72 % 1020,2 hPa 0,0 l/m 0,2 km/h (0 Bft) O-SO 112 12,7 C 18,4 C 0,0 km/h (0 Bft)
18.06.2013 01:50 17,8 C 72 % 1020,2 hPa 0,0 l/m 0,0 km/h (0 Bft) O-SO 112 12,7 C 18,2 C 0,0 km/h (0 Bft)
18.06.2013 01:55 17,8 C 72 % 1020,2 hPa 0,0 l/m 0,2 km/h (0 Bft) W-SW 247 12,7 C 18,3 C 0,0 km/h (0 Bft)
18.06.2013 02:00 18,0 C 72 % 1020,2 hPa 0,0 l/m 0,2 km/h (0 Bft) W-SW 247 12,9 C 18,4 C 3,4 km/h (1 Bft)
18.06.2013 02:05 17,9 C 71 % 1019,5 hPa 0,0 l/m 0,3 km/h (0 Bft) W-NW 292 12,6 C 18,5 C 0,0 km/h (0 Bft)
18.06.2013 02:10 17,8 C 71 % 1019,5 hPa 0,0 l/m 0,3 km/h (0 Bft) O 90 12,5 C 18,5 C 0,0 km/h (0 Bft)
18.06.2013 02:15 17,8 C 71 % 1019,5 hPa 0,0 l/m 0,2 km/h (0 Bft) W-NW 292 12,5 C 18,5 C 0,0 km/h (0 Bft)
18.06.2013 02:20 17,8 C 71 % 1019,5 hPa 0,0 l/m 0,3 km/h (0 Bft) N-NO 22 12,5 C 18,6 C 0,0 km/h (0 Bft)
18.06.2013 02:25 17,9 C 71 % 1019,7 hPa 0,0 l/m 0,5 km/h (0 Bft) NO 45 12,6 C 18,6 C 0,0 km/h (0 Bft)
18.06.2013 02:30 17,8 C 71 % 1019,7 hPa 0,0 l/m 0,5 km/h (0 Bft) NW 315 12,5 C 18,6 C 0,0 km/h (0 Bft)
18.06.2013 02:35 17,8 C 71 % 1019,7 hPa 0,0 l/m 0,2 km/h (0 Bft) O 90 12,5 C 18,6 C 1,9 km/h (1 Bft)
18.06.2013 02:40 17,7 C 71 % 1019,7 hPa 0,0 l/m 0,2 km/h (0 Bft) W 270 12,4 C 18,7 C 1,9 km/h (1 Bft)
18.06.2013 02:45 17,6 C 71 % 1019,6 hPa 0,0 l/m 0,2 km/h (0 Bft) W 270 12,3 C 18,6 C 0,0 km/h (0 Bft)
18.06.2013 02:50 17,7 C 71 % 1019,6 hPa 0,0 l/m 0,3 km/h (0 Bft) W 270 12,4 C 18,6 C 1,8 km/h (1 Bft)
18.06.2013 02:55 17,7 C 71 % 1019,6 hPa 0,0 l/m 0,5 km/h (0 Bft) S-SO 157 12,4 C 18,6 C 2,7 km/h (1 Bft)
18.06.2013 03:00 17,7 C 70 % 1019,6 hPa 0,0 l/m 0,5 km/h (0 Bft) O-NO 67 12,2 C 18,4 C 0,0 km/h (0 Bft)
18.06.2013 03:05 17,8 C 70 % 1019,7 hPa 0,0 l/m 0,2 km/h (0 Bft) O 90 12,3 C 18,3 C 0,0 km/h (0 Bft)
18.06.2013 03:10 17,6 C 70 % 1019,7 hPa 0,0 l/m 0,2 km/h (0 Bft) W 270 12,1 C 18,2 C 0,0 km/h (0 Bft)
18.06.2013 03:15 17,6 C 70 % 1019,7 hPa 0,0 l/m 0,5 km/h (0 Bft) O 90 12,1 C 18,3 C 1,6 km/h (1 Bft)
18.06.2013 03:20 17,5 C 70 % 1019,7 hPa 0,0 l/m 0,6 km/h (0 Bft) NO 45 12,0 C 18,4 C 4,5 km/h (1 Bft)
18.06.2013 03:25 17,5 C 70 % 1019,8 hPa 0,0 l/m 0,6 km/h (0 Bft) W 270 12,0 C 18,4 C 0,0 km/h (0 Bft)
18.06.2013 03:30 17,5 C 70 % 1019,8 hPa 0,0 l/m 0,2 km/h (0 Bft) W-SW 247 12,0 C 18,2 C 1,6 km/h (1 Bft)
18.06.2013 03:35 17,5 C 70 % 1019,8 hPa 0,0 l/m 0,0 km/h (0 Bft) NW 315 12,0 C 18,1 C 1,6 km/h (1 Bft)
18.06.2013 03:40 17,6 C 70 % 1019,8 hPa 0,0 l/m 0,2 km/h (0 Bft) W-SW 247 12,1 C 18,1 C 2,1 km/h (1 Bft)
18.06.2013 03:45 17,6 C 70 % 1019,8 hPa 0,0 l/m 0,2 km/h (0 Bft) O-SO 112 12,1 C 18,1 C 0,0 km/h (0 Bft)
18.06.2013 03:50 17,5 C 71 % 1019,8 hPa 0,0 l/m 0,2 km/h (0 Bft) SO 135 12,2 C 18,1 C 0,0 km/h (0 Bft)
18.06.2013 03:55 17,5 C 71 % 1019,8 hPa 0,0 l/m 0,2 km/h (0 Bft) W-SW 247 12,2 C 17,9 C 0,0 km/h (0 Bft)
18.06.2013 04:00 17,2 C 71 % 1019,8 hPa 0,0 l/m 0,0 km/h (0 Bft) NO 45 11,9 C 17,8 C 0,0 km/h (0 Bft)
18.06.2013 04:05 17,2 C 71 % 1019,6 hPa 0,0 l/m 0,0 km/h (0 Bft) NO 45 11,9 C 17,7 C 0,0 km/h (0 Bft)
18.06.2013 04:10 17,1 C 71 % 1019,6 hPa 0,0 l/m 0,2 km/h (0 Bft) O-SO 112 11,8 C 17,8 C 1,6 km/h (1 Bft)
18.06.2013 04:16 17,0 C 71 % 1019,6 hPa 0,0 l/m 0,3 km/h (0 Bft) S-SW 202 11,7 C 17,8 C 1,8 km/h (1 Bft)
18.06.2013 04:20 16,8 C 71 % 1019,6 hPa 0,0 l/m 0,2 km/h (0 Bft) NO 45 11,5 C 17,6 C 0,0 km/h (0 Bft)
18.06.2013 04:25 16,8 C 72 % 1020,1 hPa 0,0 l/m 0,2 km/h (0 Bft) N-NW 337 11,7 C 17,4 C 0,0 km/h (0 Bft)
18.06.2013 04:30 16,5 C 72 % 1020,1 hPa 0,0 l/m 0,0 km/h (0 Bft) N-NW 337 11,4 C 16,9 C 0,0 km/h (0 Bft)
18.06.2013 04:35 16,4 C 73 % 1020,1 hPa 0,0 l/m 0,0 km/h (0 Bft) N-NO 22 11,5 C 16,7 C 0,0 km/h (0 Bft)
18.06.2013 04:40 16,2 C 73 % 1020,1 hPa 0,0 l/m 0,3 km/h (0 Bft) SO 135 11,4 C 16,5 C 1,9 km/h (1 Bft)
18.06.2013 04:45 16,1 C 73 % 1020,2 hPa 0,0 l/m 0,6 km/h (0 Bft) W-SW 247 11,3 C 16,7 C 2,4 km/h (1 Bft)
18.06.2013 04:50 16,5 C 76 % 1020,2 hPa 0,0 l/m 2,9 km/h (1 Bft) S 180 12,3 C 16,6 C 17,1 km/h (3 Bft)
18.06.2013 04:55 16,7 C 75 % 1020,2 hPa 0,0 l/m 4,3 km/h (1 Bft) O 90 12,2 C 17,1 C 4,0 km/h (1 Bft)
18.06.2013 05:00 17,7 C 71 % 1020,2 hPa 0,0 l/m 3,9 km/h (1 Bft) S 180 12,4 C 17,5 C 2,6 km/h (1 Bft)
18.06.2013 05:05 17,8 C 70 % 1021,1 hPa 0,0 l/m 3,4 km/h (1 Bft) S-SO 157 12,3 C 17,9 C 3,2 km/h (1 Bft)
18.06.2013 05:10 17,7 C 69 % 1021,1 hPa 0,0 l/m 3,7 km/h (1 Bft) SW 225 11,9 C 18,6 C 7,9 km/h (2 Bft)
18.06.2013 05:15 18,1 C 68 % 1021,1 hPa 0,0 l/m 4,2 km/h (1 Bft) S 180 12,1 C 18,8 C 5,3 km/h (1 Bft)
18.06.2013 05:20 17,9 C 68 % 1021,1 hPa 0,0 l/m 3,9 km/h (1 Bft) S-SO 157 11,9 C 18,8 C 5,6 km/h (1 Bft)
18.06.2013 05:25 18,1 C 67 % 1021,1 hPa 0,0 l/m 2,6 km/h (1 Bft) SO 135 11,9 C 18,7 C 1,9 km/h (1 Bft)
18.06.2013 05:30 18,7 C 65 % 1021,1 hPa 0,0 l/m 2,4 km/h (1 Bft) S 180 12,0 C 18,9 C 2,7 km/h (1 Bft)
18.06.2013 05:35 18,5 C 65 % 1021,1 hPa 0,0 l/m 2,1 km/h (1 Bft) O-NO 67 11,8 C 19,1 C 0,0 km/h (0 Bft)
18.06.2013 05:40 18,3 C 66 % 1021,1 hPa 0,0 l/m 1,9 km/h (1 Bft) SO 135 11,8 C 19,1 C 5,1 km/h (1 Bft)
18.06.2013 05:45 18,4 C 65 % 1021,3 hPa 0,0 l/m 2,1 km/h (1 Bft) O 90 11,7 C 19,3 C 1,6 km/h (1 Bft)
18.06.2013 05:50 18,6 C 64 % 1021,3 hPa 0,0 l/m 2,3 km/h (1 Bft) S-SO 157 11,7 C 19,4 C 4,7 km/h (1 Bft)
18.06.2013 05:55 19,1 C 63 % 1021,3 hPa 0,0 l/m 1,8 km/h (1 Bft) O 90 11,9 C 19,7 C 1,9 km/h (1 Bft)
18.06.2013 06:00 19,3 C 63 % 1021,3 hPa 0,0 l/m 2,6 km/h (1 Bft) NO 45 12,1 C 20,0 C 0,0 km/h (0 Bft)
18.06.2013 06:05 19,7 C 62 % 1021,5 hPa 0,0 l/m 3,2 km/h (1 Bft) NO 45 12,2 C 20,2 C 6,4 km/h (2 Bft)
18.06.2013 06:10 20,6 C 61 % 1021,5 hPa 0,0 l/m 2,9 km/h (1 Bft) O 90 12,8 C 20,9 C 2,9 km/h (1 Bft)
18.06.2013 06:15 20,9 C 61 % 1021,5 hPa 0,0 l/m 3,1 km/h (1 Bft) O-SO 112 13,1 C 21,3 C 3,4 km/h (1 Bft)
18.06.2013 06:20 21,2 C 60 % 1021,5 hPa 0,0 l/m 2,7 km/h (1 Bft) O 90 13,1 C 21,8 C 4,5 km/h (1 Bft)
18.06.2013 06:25 21,5 C 61 % 1021,6 hPa 0,0 l/m 2,9 km/h (1 Bft) O 90 13,7 C 22,0 C 3,2 km/h (1 Bft)
18.06.2013 06:30 22,1 C 59 % 1021,6 hPa 0,0 l/m 1,8 km/h (1 Bft) O 90 13,7 C 22,6 C 0,0 km/h (0 Bft)
18.06.2013 06:35 22,4 C 59 % 1021,6 hPa 0,0 l/m 1,3 km/h (1 Bft) NO 45 14,0 C 23,0 C 2,9 km/h (1 Bft)
18.06.2013 06:40 22,8 C 58 % 1021,6 hPa 0,0 l/m 1,3 km/h (1 Bft) NO 45 14,1 C 23,5 C 2,7 km/h (1 Bft)
18.06.2013 06:45 23,6 C 58 % 1021,6 hPa 0,0 l/m 1,1 km/h (1 Bft) N-NO 22 14,8 C 23,9 C 0,0 km/h (0 Bft)
18.06.2013 06:50 23,8 C 57 % 1021,6 hPa 0,0 l/m 1,6 km/h (1 Bft) O 90 14,8 C 24,4 C 2,6 km/h (1 Bft)
18.06.2013 06:55 24,7 C 57 % 1021,6 hPa 0,0 l/m 1,1 km/h (1 Bft) O-NO 67 15,6 C 24,7 C 0,0 km/h (0 Bft)
18.06.2013 07:00 25,0 C 55 % 1021,6 hPa 0,0 l/m 0,6 km/h (0 Bft) O 90 15,3 C 25,4 C 0,0 km/h (0 Bft)
18.06.2013 07:05 25,1 C 54 % 1021,7 hPa 0,0 l/m 0,3 km/h (0 Bft) O-SO 112 15,1 C 25,8 C 0,0 km/h (0 Bft)
18.06.2013 07:10 25,7 C 53 % 1021,7 hPa 0,0 l/m 0,3 km/h (0 Bft) S-SO 157 15,4 C 26,5 C 0,0 km/h (0 Bft)
18.06.2013 07:15 26,0 C 50 % 1021,7 hPa 0,0 l/m 0,5 km/h (0 Bft) O 90 14,8 C 26,8 C 0,0 km/h (0 Bft)
18.06.2013 07:20 26,8 C 50 % 1021,7 hPa 0,0 l/m 0,3 km/h (0 Bft) O 90 15,5 C 27,5 C 0,0 km/h (0 Bft)
18.06.2013 07:25 26,9 C 50 % 1021,7 hPa 0,0 l/m 0,3 km/h (0 Bft) O 90 15,6 C 27,9 C 0,0 km/h (0 Bft)
18.06.2013 07:30 27,4 C 50 % 1021,7 hPa 0,0 l/m 0,5 km/h (0 Bft) O-NO 67 16,0 C 28,1 C 1,6 km/h (1 Bft)
18.06.2013 07:35 27,7 C 50 % 1021,7 hPa 0,0 l/m 0,3 km/h (0 Bft) NO 45 16,3 C 28,7 C 0,0 km/h (0 Bft)
18.06.2013 07:40 28,1 C 48 % 1021,7 hPa 0,0 l/m 0,2 km/h (0 Bft) O 90 16,0 C 29,1 C 0,0 km/h (0 Bft)
18.06.2013 07:45 28,0 C 47 % 1021,7 hPa 0,0 l/m 0,3 km/h (0 Bft) O 90 15,6 C 29,3 C 1,9 km/h (1 Bft)
18.06.2013 07:50 28,4 C 48 % 1021,7 hPa 0,0 l/m 1,0 km/h (0 Bft) S-SW 202 16,3 C 29,3 C 0,0 km/h (0 Bft)
18.06.2013 07:55 28,9 C 48 % 1021,7 hPa 0,0 l/m 0,8 km/h (0 Bft) SO 135 16,8 C 29,7 C 0,0 km/h (0 Bft)
18.06.2013 08:00 29,5 C 47 % 1021,7 hPa 0,0 l/m 0,0 km/h (0 Bft) O 90 17,0 C 30,6 C 0,0 km/h (0 Bft)
18.06.2013 08:05 29,5 C 47 % 1021,7 hPa 0,0 l/m 0,0 km/h (0 Bft) S-SW 202 17,0 C 30,9 C 1,6 km/h (1 Bft)
18.06.2013 08:10 29,3 C 44 % 1021,7 hPa 0,0 l/m 0,2 km/h (0 Bft) NO 45 15,8 C 31,2 C 0,0 km/h (0 Bft)
18.06.2013 08:15 29,6 C 46 % 1021,7 hPa 0,0 l/m 0,2 km/h (0 Bft) NO 45 16,7 C 31,6 C 0,0 km/h (0 Bft)
18.06.2013 08:20 29,5 C 44 % 1021,7 hPa 0,0 l/m 0,3 km/h (0 Bft) NO 45 15,9 C 31,9 C 0,0 km/h (0 Bft)
18.06.2013 08:25 29,6 C 45 % 1021,7 hPa 0,0 l/m 0,3 km/h (0 Bft) O-SO 112 16,4 C 32,0 C 0,0 km/h (0 Bft)
18.06.2013 08:30 29,8 C 45 % 1021,7 hPa 0,0 l/m 0,0 km/h (0 Bft) NO 45 16,6 C 32,7 C 0,0 km/h (0 Bft)
18.06.2013 08:35 30,1 C 45 % 1021,7 hPa 0,0 l/m 0,0 km/h (0 Bft) O-NO 67 16,8 C 32,9 C 0,0 km/h (0 Bft)
18.06.2013 08:40 30,5 C 45 % 1021,7 hPa 0,0 l/m 0,0 km/h (0 Bft) NO 45 17,2 C 33,4 C 0,0 km/h (0 Bft)
18.06.2013 08:45 30,7 C 44 % 1021,7 hPa 0,0 l/m 0,0 km/h (0 Bft) W-NW 292 17,0 C 33,8 C 0,0 km/h (0 Bft)
18.06.2013 08:50 30,8 C 46 % 1021,7 hPa 0,0 l/m 0,0 km/h (0 Bft) NO 45 17,8 C 34,2 C 0,0 km/h (0 Bft)
18.06.2013 08:55 31,4 C 45 % 1021,7 hPa 0,0 l/m 0,0 km/h (0 Bft) O-SO 112 18,0 C 34,4 C 0,0 km/h (0 Bft)
18.06.2013 09:00 31,0 C 43 % 1021,7 hPa 0,0 l/m 0,0 km/h (0 Bft) S-SO 157 16,9 C 34,8 C 0,0 km/h (0 Bft)
18.06.2013 09:05 31,5 C 45 % 1021,6 hPa 0,0 l/m 0,0 km/h (0 Bft) S 180 18,1 C 35,2 C 0,0 km/h (0 Bft)
18.06.2013 09:10 31,6 C 43 % 1021,6 hPa 0,0 l/m 0,0 km/h (0 Bft) O 90 17,5 C 35,6 C 0,0 km/h (0 Bft)
18.06.2013 09:15 32,0 C 44 % 1021,6 hPa 0,0 l/m 0,0 km/h (0 Bft) W-NW 292 18,2 C 35,7 C 0,0 km/h (0 Bft)
18.06.2013 09:20 31,8 C 42 % 1021,6 hPa 0,0 l/m 0,3 km/h (0 Bft) W 270 17,3 C 35,2 C 0,0 km/h (0 Bft)
18.06.2013 09:25 32,2 C 39 % 1021,9 hPa 0,0 l/m 0,6 km/h (0 Bft) W 270 16,5 C 34,9 C 0,0 km/h (0 Bft)
18.06.2013 09:30 31,6 C 39 % 1021,9 hPa 0,0 l/m 1,0 km/h (0 Bft) W 270 15,9 C 34,7 C 0,0 km/h (0 Bft)
18.06.2013 09:35 31,9 C 39 % 1021,9 hPa 0,0 l/m 0,6 km/h (0 Bft) O 90 16,2 C 34,8 C 0,0 km/h (0 Bft)
18.06.2013 09:40 32,1 C 39 % 1021,9 hPa 0,0 l/m 0,3 km/h (0 Bft) N-NW 337 16,4 C 35,4 C 0,0 km/h (0 Bft)
18.06.2013 09:45 32,1 C 39 % 1022,2 hPa 0,0 l/m 1,4 km/h (1 Bft) W-NW 292 16,4 C 34,9 C 3,4 km/h (1 Bft)
18.06.2013 09:50 32,8 C 39 % 1022,2 hPa 0,0 l/m 1,8 km/h (1 Bft) W-SW 247 17,0 C 34,2 C 0,0 km/h (0 Bft)
18.06.2013 09:55 32,3 C 38 % 1022,2 hPa 0,0 l/m 0,8 km/h (0 Bft) O-NO 67 16,1 C 34,8 C 1,6 km/h (1 Bft)
18.06.2013 10:00 31,9 C 38 % 1022,2 hPa 0,0 l/m 0,3 km/h (0 Bft) W-NW 292 15,8 C 35,0 C 0,0 km/h (0 Bft)
18.06.2013 10:05 32,0 C 37 % 1022,2 hPa 0,0 l/m 0,8 km/h (0 Bft) N-NW 337 15,5 C 35,0 C 3,7 km/h (1 Bft)
18.06.2013 10:10 32,2 C 38 % 1022,2 hPa 0,0 l/m 1,3 km/h (1 Bft) NO 45 16,0 C 34,8 C 0,0 km/h (0 Bft)
18.06.2013 10:15 32,3 C 38 % 1022,2 hPa 0,0 l/m 1,9 km/h (1 Bft) W-NW 292 16,1 C 34,7 C 4,8 km/h (1 Bft)
18.06.2013 10:20 31,4 C 39 % 1022,2 hPa 0,0 l/m 3,1 km/h (1 Bft) N 360 15,7 C 34,0 C 5,0 km/h (1 Bft)
18.06.2013 10:25 31,5 C 38 % 1022,1 hPa 0,0 l/m 4,3 km/h (1 Bft) NW 315 15,4 C 33,3 C 4,5 km/h (1 Bft)
18.06.2013 10:30 31,3 C 39 % 1022,1 hPa 0,0 l/m 4,2 km/h (1 Bft) W-NW 292 15,7 C 32,7 C 0,0 km/h (0 Bft)
18.06.2013 10:35 31,4 C 39 % 1022,1 hPa 0,0 l/m 4,2 km/h (1 Bft) N 360 15,7 C 32,8 C 5,8 km/h (2 Bft)
18.06.2013 10:40 30,9 C 38 % 1022,1 hPa 0,0 l/m 4,2 km/h (1 Bft) NW 315 14,9 C 32,7 C 5,5 km/h (1 Bft)
18.06.2013 10:45 31,4 C 39 % 1022,3 hPa 0,0 l/m 4,2 km/h (1 Bft) N 360 15,7 C 32,6 C 4,0 km/h (1 Bft)
18.06.2013 10:50 31,7 C 39 % 1022,3 hPa 0,0 l/m 3,5 km/h (1 Bft) N 360 16,0 C 33,0 C 6,8 km/h (2 Bft)
18.06.2013 10:55 31,2 C 38 % 1022,3 hPa 0,0 l/m 2,7 km/h (1 Bft) W-NW 292 15,2 C 33,2 C 0,0 km/h (0 Bft)
18.06.2013 11:00 31,5 C 39 % 1022,3 hPa 0,0 l/m 2,6 km/h (1 Bft) W 270 15,8 C 33,8 C 4,5 km/h (1 Bft)
18.06.2013 11:05 31,7 C 38 % 1022,3 hPa 0,0 l/m 2,3 km/h (1 Bft) N-NO 22 15,6 C 33,8 C 4,8 km/h (1 Bft)
18.06.2013 11:10 31,5 C 38 % 1022,3 hPa 0,0 l/m 3,1 km/h (1 Bft) N 360 15,4 C 33,8 C 2,7 km/h (1 Bft)
18.06.2013 11:15 31,5 C 39 % 1022,3 hPa 0,0 l/m 3,9 km/h (1 Bft) NW 315 15,8 C 33,4 C 4,3 km/h (1 Bft)
18.06.2013 11:20 31,5 C 38 % 1022,3 hPa 0,0 l/m 5,0 km/h (1 Bft) N 360 15,4 C 33,0 C 4,7 km/h (1 Bft)
18.06.2013 11:25 31,9 C 39 % 1022,4 hPa 0,0 l/m 4,5 km/h (1 Bft) W-NW 292 16,2 C 32,7 C 3,9 km/h (1 Bft)
18.06.2013 11:30 31,9 C 37 % 1022,4 hPa 0,0 l/m 3,7 km/h (1 Bft) N-NO 22 15,4 C 33,0 C 7,1 km/h (2 Bft)
18.06.2013 11:35 32,0 C 37 % 1022,4 hPa 0,0 l/m 3,4 km/h (1 Bft) S 180 15,5 C 33,2 C 2,6 km/h (1 Bft)
18.06.2013 11:40 32,1 C 36 % 1022,4 hPa 0,0 l/m 4,0 km/h (1 Bft) W-NW 292 15,1 C 33,1 C 8,0 km/h (2 Bft)
18.06.2013 11:45 32,3 C 38 % 1022,4 hPa 0,0 l/m 5,0 km/h (1 Bft) W-NW 292 16,1 C 32,9 C 5,0 km/h (1 Bft)
18.06.2013 11:50 32,2 C 38 % 1022,4 hPa 0,0 l/m 4,0 km/h (1 Bft) W-SW 247 16,0 C 33,1 C 4,2 km/h (1 Bft)
18.06.2013 11:55 32,1 C 39 % 1022,4 hPa 0,0 l/m 3,4 km/h (1 Bft) W-NW 292 16,4 C 33,3 C 3,9 km/h (1 Bft)
18.06.2013 12:00 31,4 C 37 % 1022,4 hPa 0,0 l/m 5,5 km/h (1 Bft) NW 315 14,9 C 32,9 C 3,7 km/h (1 Bft)
18.06.2013 12:05 31,6 C 38 % 1022,2 hPa 0,0 l/m 5,8 km/h (2 Bft) N-NW 337 15,5 C 32,8 C 3,1 km/h (1 Bft)
18.06.2013 12:10 32,0 C 38 % 1022,2 hPa 0,0 l/m 5,0 km/h (1 Bft) N-NW 337 15,9 C 33,2 C 9,0 km/h (2 Bft)
18.06.2013 12:15 32,0 C 37 % 1022,2 hPa 0,0 l/m 5,1 km/h (1 Bft) W-NW 292 15,5 C 33,0 C 8,5 km/h (2 Bft)
18.06.2013 12:20 32,4 C 38 % 1022,2 hPa 0,0 l/m 4,5 km/h (1 Bft) W 270 16,2 C 33,5 C 7,9 km/h (2 Bft)
18.06.2013 12:25 32,3 C 36 % 1022,1 hPa 0,0 l/m 4,0 km/h (1 Bft) W-NW 292 15,3 C 33,6 C 6,6 km/h (2 Bft)
18.06.2013 12:30 32,3 C 37 % 1022,1 hPa 0,0 l/m 4,3 km/h (1 Bft) W-NW 292 15,7 C 34,0 C 4,7 km/h (1 Bft)
18.06.2013 12:35 32,3 C 38 % 1022,1 hPa 0,0 l/m 4,8 km/h (1 Bft) N-NO 22 16,1 C 33,9 C 8,7 km/h (2 Bft)
18.06.2013 12:40 32,4 C 37 % 1022,1 hPa 0,0 l/m 5,6 km/h (1 Bft) N 360 15,8 C 33,6 C 5,5 km/h (1 Bft)
18.06.2013 12:45 32,0 C 38 % 1022,1 hPa 0,0 l/m 5,8 km/h (2 Bft) W-NW 292 15,9 C 33,5 C 4,0 km/h (1 Bft)
18.06.2013 12:50 32,0 C 38 % 1022,1 hPa 0,0 l/m 5,5 km/h (1 Bft) N-NW 337 15,9 C 33,5 C 8,7 km/h (2 Bft)
18.06.2013 12:55 32,0 C 37 % 1022,1 hPa 0,0 l/m 5,5 km/h (1 Bft) NW 315 15,5 C 33,5 C 10,0 km/h (2 Bft)
18.06.2013 13:00 31,7 C 37 % 1022,1 hPa 0,0 l/m 7,1 km/h (2 Bft) NW 315 15,2 C 32,9 C 4,8 km/h (1 Bft)
18.06.2013 13:05 31,9 C 39 % 1021,8 hPa 0,0 l/m 7,4 km/h (2 Bft) S 180 16,2 C 33,1 C 11,1 km/h (2 Bft)
18.06.2013 13:10 32,2 C 37 % 1021,8 hPa 0,0 l/m 6,4 km/h (2 Bft) W-SW 247 15,6 C 33,2 C 4,5 km/h (1 Bft)
18.06.2013 13:15 32,1 C 38 % 1021,8 hPa 0,0 l/m 5,5 km/h (1 Bft) W-NW 292 16,0 C 33,4 C 2,6 km/h (1 Bft)
18.06.2013 13:20 32,7 C 39 % 1021,8 hPa 0,0 l/m 3,5 km/h (1 Bft) W-NW 292 16,9 C 34,1 C 2,7 km/h (1 Bft)
18.06.2013 13:25 32,2 C 36 % 1021,8 hPa 0,0 l/m 4,2 km/h (1 Bft) N 360 15,2 C 34,4 C 8,5 km/h (2 Bft)
18.06.2013 13:30 32,2 C 38 % 1021,8 hPa 0,0 l/m 5,8 km/h (2 Bft) NW 315 16,0 C 34,1 C 12,1 km/h (2 Bft)
18.06.2013 13:35 32,4 C 37 % 1021,8 hPa 0,0 l/m 5,6 km/h (1 Bft) W-NW 292 15,8 C 34,1 C 5,1 km/h (1 Bft)
18.06.2013 13:40 32,2 C 36 % 1021,8 hPa 0,0 l/m 6,4 km/h (2 Bft) N 360 15,2 C 34,0 C 10,9 km/h (2 Bft)
18.06.2013 13:45 32,2 C 37 % 1021,6 hPa 0,0 l/m 6,4 km/h (2 Bft) N-NW 337 15,6 C 33,9 C 9,7 km/h (2 Bft)
18.06.2013 13:50 32,4 C 36 % 1021,6 hPa 0,0 l/m 6,6 km/h (2 Bft) N-NW 337 15,4 C 33,8 C 3,5 km/h (1 Bft)
18.06.2013 13:55 32,9 C 37 % 1021,6 hPa 0,0 l/m 6,0 km/h (2 Bft) N 360 16,2 C 34,1 C 3,1 km/h (1 Bft)
18.06.2013 14:00 32,9 C 35 % 1021,6 hPa 0,0 l/m 5,6 km/h (1 Bft) W-SW 247 15,4 C 34,3 C 8,0 km/h (2 Bft)
18.06.2013 14:05 33,0 C 34 % 1021,5 hPa 0,0 l/m 6,1 km/h (2 Bft) NO 45 15,0 C 34,1 C 3,9 km/h (1 Bft)
18.06.2013 14:10 32,9 C 35 % 1021,5 hPa 0,0 l/m 5,8 km/h (2 Bft) O 90 15,4 C 34,0 C 3,1 km/h (1 Bft)
18.06.2013 14:15 33,0 C 32 % 1021,5 hPa 0,0 l/m 5,3 km/h (1 Bft) W 270 14,1 C 34,3 C 4,8 km/h (1 Bft)
18.06.2013 14:20 33,1 C 33 % 1021,5 hPa 0,0 l/m 4,7 km/h (1 Bft) NW 315 14,6 C 34,6 C 9,3 km/h (2 Bft)
18.06.2013 14:25 33,1 C 34 % 1021,3 hPa 0,0 l/m 5,8 km/h (2 Bft) N 360 15,1 C 34,6 C 10,1 km/h (2 Bft)
18.06.2013 14:30 32,8 C 33 % 1021,3 hPa 0,0 l/m 6,9 km/h (2 Bft) NO 45 14,4 C 34,6 C 8,0 km/h (2 Bft)
18.06.2013 14:35 33,3 C 31 % 1021,3 hPa 0,0 l/m 6,1 km/h (2 Bft) W-NW 292 13,8 C 34,7 C 5,8 km/h (2 Bft)
18.06.2013 14:40 33,1 C 30 % 1021,3 hPa 0,0 l/m 5,3 km/h (1 Bft) N 360 13,2 C 34,9 C 5,3 km/h (1 Bft)
18.06.2013 14:45 33,4 C 31 % 1021,1 hPa 0,0 l/m 5,5 km/h (1 Bft) N 360 13,9 C 35,2 C 7,7 km/h (2 Bft)
18.06.2013 14:50 33,4 C 29 % 1021,1 hPa 0,0 l/m 6,0 km/h (2 Bft) W-NW 292 12,9 C 35,4 C 10,6 km/h (2 Bft)
18.06.2013 14:55 33,2 C 30 % 1021,1 hPa 0,0 l/m 6,1 km/h (2 Bft) S-SW 202 13,3 C 35,5 C 11,3 km/h (2 Bft)
18.06.2013 15:00 33,3 C 30 % 1021,1 hPa 0,0 l/m 5,8 km/h (2 Bft) N-NW 337 13,3 C 35,5 C 7,9 km/h (2 Bft)
18.06.2013 15:05 33,4 C 29 % 1020,9 hPa 0,0 l/m 6,1 km/h (2 Bft) W-NW 292 12,9 C 35,4 C 5,6 km/h (1 Bft)
18.06.2013 15:10 33,5 C 29 % 1020,9 hPa 0,0 l/m 6,6 km/h (2 Bft) N 360 13,0 C 35,5 C 10,8 km/h (2 Bft)
18.06.2013 15:15 33,4 C 28 % 1020,9 hPa 0,0 l/m 6,1 km/h (2 Bft) NO 45 12,4 C 35,4 C 4,2 km/h (1 Bft)
18.06.2013 15:20 33,7 C 30 % 1020,9 hPa 0,0 l/m 5,8 km/h (2 Bft) N 360 13,7 C 35,5 C 8,4 km/h (2 Bft)
18.06.2013 15:25 33,6 C 29 % 1020,7 hPa 0,0 l/m 5,3 km/h (1 Bft) N-NW 337 13,1 C 35,8 C 5,0 km/h (1 Bft)
18.06.2013 15:30 33,3 C 30 % 1020,7 hPa 0,0 l/m 6,3 km/h (2 Bft) N-NW 337 13,3 C 36,1 C 19,3 km/h (3 Bft)
18.06.2013 15:35 33,4 C 30 % 1020,7 hPa 0,0 l/m 6,4 km/h (2 Bft) N-NW 337 13,4 C 35,7 C 7,7 km/h (2 Bft)
18.06.2013 15:40 33,4 C 26 % 1020,7 hPa 0,0 l/m 6,9 km/h (2 Bft) W 270 11,2 C 35,4 C 5,0 km/h (1 Bft)
18.06.2013 15:45 33,5 C 26 % 1020,8 hPa 0,0 l/m 6,6 km/h (2 Bft) N-NW 337 11,3 C 35,8 C 4,2 km/h (1 Bft)
18.06.2013 15:50 33,7 C 28 % 1020,8 hPa 0,0 l/m 5,8 km/h (2 Bft) W-NW 292 12,6 C 35,9 C 9,2 km/h (2 Bft)
18.06.2013 15:55 33,6 C 27 % 1020,8 hPa 0,0 l/m 5,5 km/h (1 Bft) NW 315 12,0 C 36,1 C 8,0 km/h (2 Bft)
18.06.2013 16:00 33,6 C 29 % 1020,8 hPa 0,0 l/m 6,1 km/h (2 Bft) W-NW 292 13,1 C 36,1 C 8,0 km/h (2 Bft)
18.06.2013 16:05 33,4 C 29 % 1020,6 hPa 0,0 l/m 6,3 km/h (2 Bft) N-NO 22 12,9 C 36,2 C 8,5 km/h (2 Bft)
18.06.2013 16:10 33,4 C 28 % 1020,6 hPa 0,0 l/m 6,1 km/h (2 Bft) N-NW 337 12,4 C 36,2 C 9,7 km/h (2 Bft)
18.06.2013 16:15 33,5 C 27 % 1020,6 hPa 0,0 l/m 6,3 km/h (2 Bft) NO 45 11,9 C 36,3 C 7,6 km/h (2 Bft)
18.06.2013 16:20 33,2 C 29 % 1020,6 hPa 0,0 l/m 6,8 km/h (2 Bft) N-NW 337 12,7 C 36,4 C 7,9 km/h (2 Bft)
18.06.2013 16:25 33,2 C 28 % 1020,5 hPa 0,0 l/m 6,0 km/h (2 Bft) N-NW 337 12,2 C 36,3 C 9,5 km/h (2 Bft)
18.06.2013 16:30 33,0 C 30 % 1020,5 hPa 0,0 l/m 6,9 km/h (2 Bft) W-NW 292 13,1 C 36,4 C 18,8 km/h (3 Bft)
18.06.2013 16:35 32,6 C 32 % 1020,5 hPa 0,0 l/m 7,6 km/h (2 Bft) N 360 13,7 C 36,1 C 10,8 km/h (2 Bft)
18.06.2013 16:40 32,4 C 33 % 1020,5 hPa 0,0 l/m 8,0 km/h (2 Bft) N-NO 22 14,0 C 35,8 C 8,9 km/h (2 Bft)
18.06.2013 16:45 32,6 C 32 % 1020,4 hPa 0,0 l/m 7,2 km/h (2 Bft) N 360 13,7 C 36,0 C 9,3 km/h (2 Bft)
18.06.2013 16:50 32,2 C 33 % 1020,4 hPa 0,0 l/m 7,6 km/h (2 Bft) W-NW 292 13,9 C 36,0 C 8,9 km/h (2 Bft)
18.06.2013 16:55 32,1 C 33 % 1020,4 hPa 0,0 l/m 7,4 km/h (2 Bft) N-NO 22 13,8 C 36,2 C 6,6 km/h (2 Bft)
18.06.2013 17:00 32,0 C 33 % 1020,4 hPa 0,0 l/m 7,4 km/h (2 Bft) W-NW 292 13,7 C 36,2 C 10,3 km/h (2 Bft)
18.06.2013 17:05 31,9 C 34 % 1020,4 hPa 0,0 l/m 8,2 km/h (2 Bft) W 270 14,1 C 36,1 C 13,4 km/h (3 Bft)
18.06.2013 17:10 31,7 C 35 % 1020,4 hPa 0,0 l/m 8,7 km/h (2 Bft) N-NW 337 14,3 C 36,0 C 8,5 km/h (2 Bft)
18.06.2013 17:16 31,7 C 36 % 1020,4 hPa 0,0 l/m 8,2 km/h (2 Bft) N 360 14,8 C 36,0 C 12,9 km/h (3 Bft)
18.06.2013 17:20 31,6 C 35 % 1020,4 hPa 0,0 l/m 7,6 km/h (2 Bft) N-NW 337 14,2 C 36,2 C 21,1 km/h (4 Bft)
18.06.2013 17:25 31,4 C 36 % 1020,1 hPa 0,0 l/m 9,2 km/h (2 Bft) N 360 14,5 C 36,0 C 13,2 km/h (3 Bft)
18.06.2013 17:30 30,6 C 36 % 1020,1 hPa 0,0 l/m 8,9 km/h (2 Bft) W 270 13,8 C 34,5 C 14,6 km/h (3 Bft)
18.06.2013 17:35 30,3 C 37 % 1020,1 hPa 0,0 l/m 7,4 km/h (2 Bft) N-NW 337 14,0 C 33,3 C 5,8 km/h (2 Bft)
18.06.2013 17:40 30,2 C 37 % 1020,1 hPa 0,0 l/m 7,7 km/h (2 Bft) N-NO 22 13,9 C 32,4 C 16,1 km/h (3 Bft)
18.06.2013 17:45 30,0 C 37 % 1020,3 hPa 0,0 l/m 8,2 km/h (2 Bft) NW 315 13,7 C 32,2 C 9,0 km/h (2 Bft)
18.06.2013 17:50 29,9 C 38 % 1020,3 hPa 0,0 l/m 7,7 km/h (2 Bft) N 360 14,0 C 31,6 C 9,5 km/h (2 Bft)
18.06.2013 17:55 29,7 C 38 % 1020,3 hPa 0,0 l/m 7,1 km/h (2 Bft) N-NO 22 13,8 C 31,5 C 4,5 km/h (1 Bft)
18.06.2013 18:00 29,5 C 41 % 1020,3 hPa 0,0 l/m 5,5 km/h (1 Bft) O-SO 112 14,8 C 31,5 C 4,7 km/h (1 Bft)
18.06.2013 18:05 29,4 C 41 % 1020,4 hPa 0,0 l/m 4,5 km/h (1 Bft) NW 315 14,7 C 31,3 C 5,8 km/h (2 Bft)
18.06.2013 18:10 29,0 C 42 % 1020,4 hPa 0,0 l/m 5,0 km/h (1 Bft) W-NW 292 14,8 C 30,8 C 16,9 km/h (3 Bft)
18.06.2013 18:15 29,0 C 40 % 1020,4 hPa 0,0 l/m 6,3 km/h (2 Bft) N 360 14,0 C 30,6 C 11,4 km/h (2 Bft)
18.06.2013 18:20 28,6 C 41 % 1020,4 hPa 0,0 l/m 6,1 km/h (2 Bft) W-NW 292 14,0 C 30,1 C 4,3 km/h (1 Bft)
18.06.2013 18:25 28,5 C 42 % 1019,6 hPa 0,0 l/m 5,5 km/h (1 Bft) N-NW 337 14,3 C 30,0 C 6,8 km/h (2 Bft)
18.06.2013 18:30 28,1 C 44 % 1019,6 hPa 0,0 l/m 3,5 km/h (1 Bft) N-NO 22 14,7 C 29,6 C 2,4 km/h (1 Bft)
18.06.2013 18:35 28,1 C 44 % 1019,6 hPa 0,0 l/m 3,1 km/h (1 Bft) N-NW 337 14,7 C 29,4 C 3,7 km/h (1 Bft)
18.06.2013 18:40 27,9 C 44 % 1019,6 hPa 0,0 l/m 2,4 km/h (1 Bft) SO 135 14,5 C 29,2 C 1,8 km/h (1 Bft)
18.06.2013 18:45 27,7 C 45 % 1019,4 hPa 0,0 l/m 2,1 km/h (1 Bft) O-SO 112 14,7 C 29,1 C 0,0 km/h (0 Bft)
18.06.2013 18:50 27,5 C 47 % 1019,4 hPa 0,0 l/m 1,4 km/h (1 Bft) W-NW 292 15,2 C 29,0 C 0,0 km/h (0 Bft)
18.06.2013 18:55 27,3 C 47 % 1019,4 hPa 0,0 l/m 1,6 km/h (1 Bft) N 360 15,0 C 28,8 C 6,0 km/h (2 Bft)
18.06.2013 19:00 27,0 C 47 % 1019,4 hPa 0,0 l/m 1,9 km/h (1 Bft) N 360 14,7 C 28,6 C 1,6 km/h (1 Bft)
18.06.2013 19:05 26,8 C 47 % 1019,4 hPa 0,0 l/m 2,3 km/h (1 Bft) S-SW 202 14,5 C 28,3 C 0,0 km/h (0 Bft)
18.06.2013 19:10 26,2 C 47 % 1019,4 hPa 0,0 l/m 3,1 km/h (1 Bft) W 270 14,0 C 27,8 C 5,0 km/h (1 Bft)
18.06.2013 19:15 26,2 C 46 % 1019,4 hPa 0,0 l/m 2,7 km/h (1 Bft) O-NO 67 13,6 C 27,5 C 3,1 km/h (1 Bft)
18.06.2013 19:20 26,1 C 45 % 1019,4 hPa 0,0 l/m 2,3 km/h (1 Bft) O 90 13,2 C 27,1 C 4,2 km/h (1 Bft)
18.06.2013 19:25 26,0 C 45 % 1019,4 hPa 0,0 l/m 1,9 km/h (1 Bft) N-NO 22 13,1 C 26,9 C 3,1 km/h (1 Bft)
18.06.2013 19:30 25,8 C 46 % 1019,4 hPa 0,0 l/m 1,4 km/h (1 Bft) O 90 13,3 C 26,6 C 3,1 km/h (1 Bft)
18.06.2013 19:35 25,7 C 46 % 1019,4 hPa 0,0 l/m 1,6 km/h (1 Bft) N-NO 22 13,2 C 26,5 C 5,0 km/h (1 Bft)
18.06.2013 19:40 25,7 C 45 % 1019,4 hPa 0,0 l/m 2,6 km/h (1 Bft) N-NO 22 12,9 C 26,4 C 0,0 km/h (0 Bft)
18.06.2013 19:45 25,7 C 45 % 1019,4 hPa 0,0 l/m 2,6 km/h (1 Bft) O-SO 112 12,9 C 26,2 C 0,0 km/h (0 Bft)
18.06.2013 19:50 25,5 C 46 % 1019,4 hPa 0,0 l/m 2,3 km/h (1 Bft) NO 45 13,0 C 26,1 C 3,7 km/h (1 Bft)
18.06.2013 19:55 25,3 C 47 % 1019,4 hPa 0,0 l/m 2,3 km/h (1 Bft) N-NO 22 13,2 C 25,9 C 3,2 km/h (1 Bft)
18.06.2013 20:00 25,2 C 47 % 1019,4 hPa 0,0 l/m 2,6 km/h (1 Bft) N-NO 22 13,1 C 25,7 C 2,9 km/h (1 Bft)
18.06.2013 20:05 25,0 C 48 % 1019,6 hPa 0,0 l/m 2,4 km/h (1 Bft) O 90 13,2 C 25,6 C 3,4 km/h (1 Bft)
18.06.2013 20:11 24,7 C 48 % 1019,6 hPa 0,0 l/m 1,8 km/h (1 Bft) NO 45 12,9 C 25,4 C 0,0 km/h (0 Bft)
18.06.2013 20:15 24,2 C 50 % 1019,6 hPa 0,0 l/m 1,3 km/h (1 Bft) O 90 13,1 C 25,2 C 0,0 km/h (0 Bft)
18.06.2013 20:20 23,9 C 50 % 1019,6 hPa 0,0 l/m 0,2 km/h (0 Bft) O-SO 112 12,8 C 24,9 C 0,0 km/h (0 Bft)
18.06.2013 20:25 23,8 C 51 % 1019,8 hPa 0,0 l/m 0,5 km/h (0 Bft) W-NW 292 13,0 C 24,6 C 1,8 km/h (1 Bft)
18.06.2013 20:30 23,7 C 52 % 1019,8 hPa 0,0 l/m 0,8 km/h (0 Bft) NO 45 13,2 C 24,5 C 2,1 km/h (1 Bft)
18.06.2013 20:35 23,7 C 52 % 1019,8 hPa 0,0 l/m 1,1 km/h (1 Bft) NO 45 13,2 C 24,4 C 0,0 km/h (0 Bft)
18.06.2013 20:40 23,5 C 52 % 1019,8 hPa 0,0 l/m 1,0 km/h (0 Bft) O-NO 67 13,1 C 24,2 C 0,0 km/h (0 Bft)
18.06.2013 20:45 23,3 C 53 % 1019,9 hPa 0,0 l/m 0,3 km/h (0 Bft) N-NO 22 13,2 C 24,0 C 0,0 km/h (0 Bft)
18.06.2013 20:50 22,8 C 56 % 1019,9 hPa 0,0 l/m 0,2 km/h (0 Bft) NO 45 13,6 C 23,8 C 0,0 km/h (0 Bft)
18.06.2013 20:55 22,8 C 56 % 1019,9 hPa 0,0 l/m 0,5 km/h (0 Bft) O 90 13,6 C 23,6 C 0,0 km/h (0 Bft)
18.06.2013 21:00 22,8 C 57 % 1019,9 hPa 0,0 l/m 0,8 km/h (0 Bft) N-NO 22 13,8 C 23,4 C 0,0 km/h (0 Bft)
18.06.2013 21:05 22,7 C 57 % 1019,9 hPa 0,0 l/m 0,5 km/h (0 Bft) NO 45 13,7 C 23,5 C 0,0 km/h (0 Bft)
18.06.2013 21:10 22,2 C 58 % 1019,9 hPa 0,0 l/m 0,2 km/h (0 Bft) N-NO 22 13,5 C 23,4 C 0,0 km/h (0 Bft)
18.06.2013 21:15 22,1 C 59 % 1019,9 hPa 0,0 l/m 0,3 km/h (0 Bft) NO 45 13,7 C 23,1 C 2,6 km/h (1 Bft)
18.06.2013 21:20 23,2 C 54 % 1019,9 hPa 0,0 l/m 1,8 km/h (1 Bft) W 270 13,4 C 23,2 C 3,4 km/h (1 Bft)
18.06.2013 21:25 23,9 C 53 % 1019,9 hPa 0,0 l/m 3,2 km/h (1 Bft) NW 315 13,7 C 23,7 C 5,3 km/h (1 Bft)
18.06.2013 21:30 24,0 C 53 % 1019,9 hPa 0,0 l/m 4,0 km/h (1 Bft) W-NW 292 13,8 C 24,2 C 2,7 km/h (1 Bft)
18.06.2013 21:35 23,5 C 54 % 1019,9 hPa 0,0 l/m 3,4 km/h (1 Bft) N 360 13,6 C 24,3 C 4,2 km/h (1 Bft)
18.06.2013 21:40 23,3 C 54 % 1019,9 hPa 0,0 l/m 3,2 km/h (1 Bft) N-NO 22 13,5 C 24,2 C 7,1 km/h (2 Bft)
18.06.2013 21:45 23,2 C 55 % 1020,0 hPa 0,0 l/m 3,1 km/h (1 Bft) O-SO 112 13,6 C 24,2 C 2,4 km/h (1 Bft)
18.06.2013 21:50 22,7 C 57 % 1020,0 hPa 0,0 l/m 1,9 km/h (1 Bft) S 180 13,7 C 23,9 C 0,0 km/h (0 Bft)
18.06.2013 21:55 22,4 C 57 % 1020,0 hPa 0,0 l/m 1,3 km/h (1 Bft) O-NO 67 13,5 C 23,5 C 0,0 km/h (0 Bft)
18.06.2013 22:00 22,1 C 58 % 1020,0 hPa 0,0 l/m 0,6 km/h (0 Bft) N 360 13,4 C 22,9 C 2,4 km/h (1 Bft)
18.06.2013 22:05 22,1 C 57 % 1020,1 hPa 0,0 l/m 1,0 km/h (0 Bft) NO 45 13,2 C 22,7 C 3,2 km/h (1 Bft)
18.06.2013 22:10 22,5 C 56 % 1020,1 hPa 0,0 l/m 2,6 km/h (1 Bft) O-NO 67 13,3 C 22,7 C 3,4 km/h (1 Bft)
18.06.2013 22:15 22,5 C 58 % 1020,1 hPa 0,0 l/m 3,4 km/h (1 Bft) O 90 13,8 C 22,8 C 3,7 km/h (1 Bft)
18.06.2013 22:20 22,1 C 59 % 1020,1 hPa 0,0 l/m 3,1 km/h (1 Bft) S-SO 157 13,7 C 22,5 C 2,7 km/h (1 Bft)
18.06.2013 22:25 21,8 C 59 % 1020,6 hPa 0,0 l/m 2,3 km/h (1 Bft) O 90 13,4 C 22,5 C 2,1 km/h (1 Bft)
18.06.2013 22:30 21,7 C 61 % 1020,6 hPa 0,0 l/m 1,3 km/h (1 Bft) SO 135 13,8 C 22,4 C 1,6 km/h (1 Bft)
18.06.2013 22:35 21,6 C 62 % 1020,6 hPa 0,0 l/m 1,4 km/h (1 Bft) O-NO 67 14,0 C 22,3 C 5,0 km/h (1 Bft)
18.06.2013 22:40 21,4 C 62 % 1020,6 hPa 0,0 l/m 1,6 km/h (1 Bft) O-NO 67 13,8 C 22,1 C 3,2 km/h (1 Bft)
18.06.2013 22:45 21,7 C 61 % 1020,7 hPa 0,0 l/m 1,1 km/h (1 Bft) O 90 13,8 C 22,0 C 2,3 km/h (1 Bft)
18.06.2013 22:50 21,7 C 61 % 1020,7 hPa 0,0 l/m 0,8 km/h (0 Bft) O-NO 67 13,8 C 22,0 C 0,0 km/h (0 Bft)
18.06.2013 22:55 21,5 C 63 % 1020,7 hPa 0,0 l/m 0,5 km/h (0 Bft) N-NO 22 14,2 C 22,0 C 0,0 km/h (0 Bft)
18.06.2013 23:00 21,5 C 62 % 1020,7 hPa 0,0 l/m 0,5 km/h (0 Bft) NO 45 13,9 C 21,9 C 1,6 km/h (1 Bft)
18.06.2013 23:06 21,5 C 65 % 1021,1 hPa 0,0 l/m 1,3 km/h (1 Bft) S-SO 157 14,6 C 22,0 C 2,4 km/h (1 Bft)
18.06.2013 23:10 21,8 C 62 % 1021,1 hPa 0,0 l/m 2,4 km/h (1 Bft) NO 45 14,2 C 22,3 C 6,0 km/h (2 Bft)
18.06.2013 23:15 21,7 C 62 % 1021,1 hPa 0,0 l/m 2,1 km/h (1 Bft) O 90 14,1 C 22,3 C 0,0 km/h (0 Bft)
18.06.2013 23:20 21,5 C 62 % 1021,1 hPa 0,0 l/m 1,6 km/h (1 Bft) NO 45 13,9 C 22,3 C 0,0 km/h (0 Bft)
18.06.2013 23:25 21,6 C 62 % 1020,9 hPa 0,0 l/m 1,6 km/h (1 Bft) S 180 14,0 C 22,2 C 2,7 km/h (1 Bft)
18.06.2013 23:30 21,5 C 63 % 1020,9 hPa 0,0 l/m 1,4 km/h (1 Bft) NO 45 14,2 C 22,4 C 1,8 km/h (1 Bft)
18.06.2013 23:35 21,1 C 63 % 1020,9 hPa 0,0 l/m 1,0 km/h (0 Bft) NO 45 13,8 C 22,2 C 1,6 km/h (1 Bft)
18.06.2013 23:40 21,2 C 64 % 1020,9 hPa 0,0 l/m 1,3 km/h (1 Bft) O-SO 112 14,1 C 21,9 C 2,9 km/h (1 Bft)
18.06.2013 23:45 20,9 C 63 % 1020,9 hPa 0,0 l/m 1,3 km/h (1 Bft) O 90 13,6 C 21,7 C 0,0 km/h (0 Bft)
18.06.2013 23:50 20,9 C 64 % 1020,9 hPa 0,0 l/m 1,0 km/h (0 Bft) NO 45 13,8 C 21,3 C 1,8 km/h (1 Bft)
18.06.2013 23:55 20,3 C 65 % 1020,9 hPa 0,0 l/m 0,6 km/h (0 Bft) O 90 13,5 C 21,1 C 0,0 km/h (0 Bft)
_ Min-Zeit 04:45 15:45 20:00 - 09:15 - - 15:40 04:40 23:55
Minimum _ 16,1 C 26 % 1019,4 hPa - 0,0 km/h (0 Bft) - - 11,2 C 16,5 C 0,0 km/h (0 Bft)
_ Max-Zeit 15:50 04:50 12:00 23:55 17:25 - - 09:15 16:30 17:20
Maximum _ 33,7 C 76 % 1022,4 hPa 0,0 l/m 9,2 km/h
N (2 Bft)
- - 18,2 C 36,4 C 21,1 km/h
N-NW (4 Bft)
Durchschnitt _ 25,8 C 51 % 1020,8 hPa #0,0 l/m 2,7 km/h (1 Bft) W-NW - 14,0 C 27,1 C 3,5 km/h (1 Bft)